Location: Vicenza
(45.5500°N, 11.5500°E)
Time: 09:59:13
(UTC+02:00)

ISS - Visible Passes

Search period start: 08 May 2021 00:00
Search period end: 18 May 2021 00:00
Orbit: 418 x 421 km, 51.6° (Epoch: 08 May)

Date Brightness Start Highest point End Pass type
(mag) Time Alt. Az. Time Alt. Az. Time Alt. Az.
08 May -2.5 02:49:24 40° N 02:49:24 40° N 02:52:26 10° NE visible
08 May -1.8 04:23:35 10° WNW 04:26:34 28° N 04:29:33 10° ENE visible
09 May -1.5 02:03:26 24° NE 02:03:26 24° NE 02:05:01 10° ENE visible
09 May -1.8 03:36:22 12° WNW 03:38:59 28° N 03:41:57 10° ENE visible
09 May -2.4 05:13:06 10° NW 05:16:20 41° NNE 05:19:35 10° E visible
10 May -0.7 01:17:27 11° ENE 01:17:27 11° ENE 01:17:36 10° ENE visible
10 May -1.9 02:50:22 24° NW 02:51:24 29° N 02:54:26 10° NE visible
10 May -2.0 04:25:41 10° NW 04:28:48 34° NNE 04:31:56 10° E visible
11 May -1.9 02:04:21 31° N 02:04:21 31° N 02:06:57 10° NE visible
11 May -1.8 03:38:12 10° NW 03:41:14 30° N 03:44:16 10° ENE visible
12 May -1.3 01:18:16 19° NE 01:18:16 19° NE 01:19:31 10° NE visible
12 May -1.7 02:51:12 13° NW 02:53:39 28° N 02:56:38 10° ENE visible
12 May -3.0 04:27:36 10° WNW 04:30:56 55° NNE 04:34:15 10° ESE visible
13 May -1.7 02:05:02 23° NW 02:06:04 28° N 02:09:02 10° ENE visible
13 May -2.4 03:40:11 10° NW 03:43:25 41° NNE 03:46:39 10° E visible
14 May -1.7 01:18:38 29° N 01:18:38 29° N 01:21:29 10° NE visible
14 May -2.0 02:52:44 10° NW 02:55:53 34° NNE 02:59:00 10° E visible
14 May -3.8 04:29:31 10° WNW 04:32:53 69° SSW 04:36:14 10° SE visible
14 May -1.8 21:16:20 10° SSE 21:17:35 12° SE 21:18:50 10° ESE visible
14 May -3.9 22:50:30 10° SW 22:53:51 74° SSE 22:55:40 25° ENE visible
15 May -2.0 00:27:48 10° W 00:30:54 33° NNW 00:34:01 10° NE visible
15 May -1.8 02:05:16 10° NW 02:08:19 30° N 02:11:20 10° ENE visible
15 May -3.7 03:42:04 10° WNW 03:45:28 79° NNE 03:48:50 10° ESE visible
15 May -3.6 22:03:14 10° SW 22:06:29 46° SE 22:09:44 10° ENE visible
15 May -2.4 23:40:08 10° W 23:43:21 40° NNW 23:46:34 10° NE visible
16 May -1.6 01:17:44 10° WNW 01:20:43 28° N 01:23:42 10° ENE visible
16 May -3.1 02:54:39 10° WNW 02:57:59 55° NNE 03:01:19 10° ESE visible
16 May -2.8 04:31:44 10° W 04:34:39 27° SW 04:37:34 10° SSE visible
16 May -2.9 21:16:10 10° SSW 21:19:08 29° SE 21:22:07 10° ENE visible
16 May -2.9 22:52:32 10° W 22:55:50 52° NNW 22:59:08 10° NE visible
17 May -1.6 00:30:09 10° WNW 00:33:07 28° N 00:36:05 10° ENE visible
17 May -2.5 02:07:15 10° NW 02:10:28 41° NNE 02:13:42 10° E visible
17 May -3.5 03:44:05 10° WNW 03:47:19 43° SW 03:50:32 10° SE visible
17 May -3.6 22:04:59 10° WSW 22:08:20 74° NNW 22:11:43 10° ENE visible
17 May -1.7 23:42:30 10° WNW 23:45:31 29° N 23:48:33 10° NE visible
